Home   Weather   Playa del Carmen   Past weeks

Flag for Mexico Past Weather in Playa del Carmen, Quintana Roo, Mexico — Yesterday and Last 2 Weeks

Now
81 °F

Passing clouds.


Feels Like: 87 °F
Forecast: 81 / 88 °F
Wind: 13 mph from Southeast

Location: Cozumel Civ / Mil

Current Time: Apr 28, 2017 at 5:33:48 am

Latest Report: Apr 28, 2017 at 4:40 am


Visibility: 6 mi

Pressure: 29.79 "Hg

Humidity: 89%

Dew Point: 77 °F

Location of Playa del CarmenLocation

Past Weather in Playa del Carmen — Graph

°F

Playa del Carmen Temperature Yesterday

Maximum temperature yesterday: 90 °F (at 1:40 pm)
Minimum temperature yesterday: 81 °F (at 12:43 am)
Average temperature yesterday: 83 °F

High & Low Weather Summary for the Past Weeks

 TemperatureHumidityPressure
High90 °F (Apr 27, 1:40 pm)100% (Apr 16, 11:40 pm)30.07 "Hg (Apr 16, 11:40 pm)
Low66 °F (Apr 15, 2:49 am)43% (Apr 16, 2:41 pm)29.72 "Hg (Apr 26, 4:44 pm)
Average79 °F76%29.92 "Hg
* Reported Apr 13 3:44 am — Apr 28 3:43 am, Playa del Carmen, Weather by CustomWeather, © 2017

Note: Actual official high and low records may vary slightly from our data, if they occured in-between our weather recording intervals... More about our weather records

Advertising

Playa del Carmen Weather History for the Previous 24 Hours

Scroll right to see more
 ConditionsComfort  
Time TempWeatherWind HumidityBarometerVisibility
3:43 am
Fri, Apr 28
81 °FPassing clouds.13 mph89%29.81 "Hg6 mi
10:41 pm
Thu, Apr 27
81 °FPassing clouds.14 mph89%29.83 "Hg6 mi
9:41 pm82 °FPassing clouds.14 mph84%29.83 "Hg6 mi
8:43 pm82 °FPassing clouds.13 mph84%29.79 "Hg6 mi
7:43 pm82 °FScattered clouds.12 mph84%29.78 "Hg6 mi
6:40 pm82 °FBroken clouds.14 mph84%29.78 "Hg6 mi
5:41 pm84 °FPartly sunny.17 mph79%29.77 "Hg6 mi
4:41 pm86 °FPartly sunny.17 mph75%29.77 "Hg6 mi
3:42 pm86 °FPartly sunny.17 mph75%29.78 "Hg6 mi
2:40 pm86 °FPartly sunny.9 mph75%29.79 "Hg8 mi
1:40 pm90 °FPartly sunny.7 mph59%29.80 "Hg8 mi
12:42 pm86 °FPartly sunny.14 mph75%29.83 "Hg8 mi
11:41 am86 °FPartly sunny.13 mph75%29.81 "Hg8 mi
10:43 am86 °FPartly sunny.14 mph75%29.82 "Hg8 mi
9:41 am84 °FPartly sunny.12 mph79%29.82 "Hg8 mi
8:40 am82 °FPartly sunny.14 mph84%29.80 "Hg8 mi
7:40 am82 °FPartly sunny.10 mph84%29.78 "Hg8 mi
6:44 am81 °FPassing clouds.13 mph89%29.78 "Hg7 mi
5:43 am81 °FPassing clouds.12 mph89%29.75 "Hg7 mi
Weather by CustomWeather, © 2017

See weather overviewHow to use our weather pages